Location: Altann
(47.8391°N, 9.7921°E)
Time: 07:01:20
(UTC+00:00)

Daily predictions for brighter satellites

Satellite Brightness Start Highest point End
(mag) Time Altitude Azimuth Time Altitude Azimuth Time Altitude Azimuth
Cosmos 773 Rocket 4.1 19:42:08 10° NNW 19:47:27 82° ENE 19:52:44 10° SSE
GP-B 4.4 19:49:53 10° N 19:54:03 44° W 19:58:12 10° SSW
Cosmos 1340 Rocket 2.7 19:53:51 10° N 19:57:44 85° ENE 20:01:33 10° SSE
Ariane Rocket 4.0 19:53:29 10° SE 19:57:57 33° ENE 20:02:25 10° N
CZ-4C R/B 3.0 19:55:48 10° SSE 19:58:56 20° ESE 20:02:34 10° ENE
CZ-4B R/B 3.1 19:55:46 10° S 19:59:19 60° W 20:03:02 10° NNW
ISS -2.5 19:56:07 10° WNW 19:59:20 41° N 20:02:31 10° ENE
Okean 2 Rocket 3.6 19:57:11 10° N 20:01:22 42° ENE 20:05:31 10° SSE
CZ-4B R/B 4.0 19:56:56 10° S 20:02:08 65° WSW 20:07:16 10° NNW
Cosmos 1869 3.2 20:00:22 10° N 20:03:54 54° ENE 20:07:22 10° SSE
Tiangong 0.1 20:04:04 10° S 20:04:58 11° SSE 20:05:41 10° SE
Cosmos 1777 Rocket 4.0 20:01:34 10° S 20:06:43 65° ESE 20:11:53 10° NNE
BREEZE-M DEB (TANK) 3.2 20:06:05 10° S 20:08:00 20° SE 20:11:09 10° E
Cosmos 2151 Rocket 3.8 20:03:44 10° N 20:08:13 61° ENE 20:12:39 10° SSE
SOZ 4.2 20:06:35 10° WSW 20:09:28 64° SSE 20:11:40 10° ENE
Cosmos 44 4.0 20:07:04 10° S 20:10:36 25° ESE 20:14:13 10° ENE
Lacrosse 5 rocket 3.7 20:10:32 10° WNW 20:13:39 22° N 20:16:47 10° NE
Cosmos 2242 Rocket 4.2 20:10:07 10° SSW 20:14:26 60° WNW 20:18:47 10° N
Okean 1 Rocket 3.5 20:11:20 10° N 20:15:33 45° ENE 20:19:24 12° SSE
Helios 1B rocket 3.0 20:13:16 10° S 20:16:51 49° W 20:20:26 10° NNW
Helios 1A 2.8 20:14:06 10° NNE 20:18:04 74° ESE 20:22:00 10° S
Meteor PRIRODA 4.2 20:15:36 10° S 20:18:15 38° W 20:20:57 10° NNW
Cosmos 2221 Rocket 3.9 20:16:04 10° SSE 20:20:24 48° E 20:24:46 10° NNE
TSX-5 3.9 20:19:44 10° NW 20:22:47 50° WSW 20:25:51 11° SSE
Gbstr 26 Del rocket 4.1 20:19:00 10° WNW 20:23:42 56° N 20:29:30 10° E
Terra 2.3 20:20:07 10° S 20:24:45 59° W 20:29:26 10° NNW
NOSS 3-4 (A) 4.0 20:18:56 10° NW 20:25:44 79° SW 20:33:06 13° SSE
NOSS 3-4 (C) 4.0 20:18:58 10° NW 20:25:47 80° SW 20:33:06 13° SSE
Cosmos 1455 Rocket 4.2 20:23:16 10° N 20:27:04 29° ENE 20:30:04 14° SE
SPOT 3 Rocket 3.7 20:23:33 12° SSE 20:28:22 64° ENE 20:33:32 10° N
Spot 2 Rocket 3.6 20:27:32 10° S 20:32:37 77° WSW 20:37:43 10° NNW
Sich 1 Rocket 3.6 20:29:06 10° N 20:33:41 79° E 20:37:45 13° SSE
IRS-1C Rocket 4.1 20:32:24 12° SSE 20:37:21 87° ENE 20:42:40 10° NNW
Cosmos 1818 3.6 20:33:02 10° NW 20:38:30 81° WSW 20:42:53 16° SSE
Cosmos 1674 Rocket 3.7 20:34:15 10° SSW 20:38:40 80° W 20:43:08 10° N
Cosmos 1833 4.2 20:34:25 10° NNW 20:40:09 82° ENE 20:44:42 16° SSE
Cosmos 1538 Rocket 4.5 20:38:32 10° NNW 20:43:47 52° ENE 20:47:45 17° SE
ERS-1 Rocket 4.3 20:39:32 10° SSW 20:44:07 36° W 20:48:44 10° NNW
USA 245 3.8 20:40:45 10° S 20:44:56 54° WSW 20:48:19 10° NNW
IKONOS-2 4.4 20:42:45 10° NNE 20:46:55 87° ESE 20:51:02 10° SSW
Cosmos 2297 4.1 20:43:24 10° SW 20:49:01 68° WNW 20:54:43 10° NNE
PSLV R/B 3.4 20:49:19 23° SSE 20:51:04 58° ENE 20:54:09 10° N
Okean-O 4.2 20:47:30 10° SSW 20:51:23 31° W 20:55:18 10° NNW
Cosmos 1812 2.2 20:48:52 10° N 20:52:01 67° E 20:53:43 24° SSE
Meteor 1-11 4.3 20:46:49 10° S 20:52:39 81° E 20:58:28 10° NNE
Meteor 2-1 Rocket 4.3 20:51:23 10° N 20:57:16 82° ENE 21:01:41 18° SSE
Okean O Rocket 3.8 20:54:56 10° SW 20:58:15 21° W 21:01:35 10° NW
BlueWalker 3 3.1 20:55:28 10° WNW 20:58:56 38° N 21:02:24 10° E
Cosmos 1025 Rocket 3.1 20:54:52 10° SSW 20:59:12 77° W 21:03:35 10° N
Cosmos 990 Rocket 3.9 20:54:08 10° SSW 20:59:18 86° ESE 21:04:32 10° NNE
Aureole 1 Rocket 4.3 21:03:25 13° S 21:09:11 58° ESE 21:16:28 10° NNE
RESURS DK-1 3.9 21:11:25 10° N 21:14:46 25° NE 21:17:10 15° E
Cosmos 372 Rocket 4.1 21:14:58 20° S 21:18:23 54° ESE 21:23:21 10° NNE
USA 215 4.2 21:14:43 10° E 21:20:52 45° NNE 21:27:02 10° NW
DNEPR-1 R/B 3.5 21:18:03 10° NW 21:22:18 73° NE 21:24:32 27° SE
Cosmos 2369 Rocket 3.6 21:19:07 10° WSW 21:24:28 41° NW 21:29:50 10° NNE
Cosmos 1400 Rocket 4.1 21:23:50 10° NNE 21:27:04 26° ENE 21:28:20 21° E
ASTEX 1 4.4 21:22:28 10° N 21:27:05 44° WNW 21:31:39 10° SSW
Meteor 1-27 4.3 21:24:42 10° N 21:30:30 73° ENE 21:33:45 26° SSE
Cosmos 2297 Rocket 3.2 21:30:28 10° NNW 21:35:44 38° NE 21:39:27 18° ESE
ISS -3.6 21:32:59 10° WNW 21:36:20 72° NNE 21:37:42 32° E
Ariane Rocket 4.1 21:32:58 15° SSW 21:36:46 37° W 21:41:27 10° NNW
Cosmos 1937 Rocket 3.6 21:34:18 27° SSE 21:36:48 52° ESE 21:41:46 10° NNE
COBE Rocket 4.1 21:32:20 10° N 21:36:57 66° WNW 21:40:35 16° SSW
DELTA 2 R/B (1) 4.1 21:32:02 10° WSW 21:36:59 34° S 21:38:43 28° SE
Cosmos 1680 Rocket 4.0 21:34:36 10° NNW 21:39:45 51° ENE 21:42:31 26° SE
Cosmos 2098 Rocket 2.4 21:36:34 10° N 21:39:48 69° E 21:40:46 44° SSE
CZ-4C R/B 2.4 21:42:04 10° SW 21:46:25 60° NW 21:52:01 10° NE
ALOS 2 4.1 21:44:36 19° ESE 21:46:32 25° ENE 21:50:08 10° N
Cosmos 381 Rocket 4.5 21:42:20 10° NNW 21:48:41 85° WSW 21:52:07 29° SSE
Cosmos 923 Rocket 3.9 21:45:56 10° NNW 21:51:10 82° ENE 21:53:32 33° SSE
Cosmos 1697 Rocket 4.2 21:50:21 18° ESE 21:51:10 18° E 21:54:55 10° ENE
Cosmos 44 4.1 21:47:18 10° WSW 21:51:27 45° NW 21:55:44 10° NNE
Lacrosse 5 rocket 3.4 21:48:44 10° NW 21:52:00 25° NNE 21:55:18 10° ENE
Cosmos 1975 Rocket 3.4 21:53:28 24° SSW 21:55:54 61° WNW 22:00:11 10° N
MetOp-A 3.8 21:55:24 35° ESE 21:56:25 45° ENE 22:00:03 10° N
Cosmos 2228 3.0 21:57:29 10° NNW 22:01:42 70° W 22:03:10 39° S
Cosmos 2227 Rocket 3.5 22:03:19 10° NNW 22:08:26 33° NE 22:12:20 16° ESE
Cosmos 1867 3.7 22:03:27 10° SW 22:08:54 76° NW 22:14:24 10° NE
Gbstr 26 Del rocket 3.7 22:05:18 10° WNW 22:10:37 90° SSW 22:15:20 19° ESE
Meteor 2-20 4.5 22:04:37 10° NNW 22:10:47 76° W 22:13:55 31° S
BREEZE M DEB (TANK) 3.2 22:07:47 10° WSW 22:10:09 34° WSW 22:10:09 34° WSW
Cosmos 494 Rocket 4.3 22:07:16 10° NNW 22:12:25 56° ENE 22:14:39 32° SE
BREEZE-M DEB (TANK) 3.2 22:09:27 10° W 22:17:13 71° N 22:19:46 13° E
Cosmos 1898 Rocket 4.2 22:16:19 14° SW 22:20:38 53° WNW 22:25:47 10° NNE
CZ-2C R/B 3.7 22:17:14 10° NNE 22:22:00 84° ESE 22:23:40 41° S
Cosmos 2266 Rocket 4.2 22:19:21 33° SSE 22:22:10 59° E 22:28:28 10° NNE
Spot 4 3.9 22:21:20 40° SE 22:23:00 72° ENE 22:27:49 10° N
Landsat 5 3.3 22:25:53 10° NNE 22:29:37 54° E 22:29:50 53° ESE
ARIANE 5 R/B 2.7 22:30:39 46° S 22:31:53 71° WSW 22:36:19 10° NNW
Cosmos 1553 Rocket 4.3 22:26:37 10° NNW 22:32:47 61° W 22:35:55 30° SSW
Cosmos 2315 Rocket 4.4 22:27:05 10° N 22:33:23 56° ENE 22:36:19 31° SE
BlueWalker 3 1.6 22:33:12 10° WNW 22:36:52 79° SSW 22:36:56 78° SSW
Cosmos 1315 Rocket 4.3 22:34:44 10° NNE 22:37:56 24° ENE 22:38:48 22° E
SL-08 ROCKET BODY 4.4 22:36:29 33° SSW 22:39:21 79° W 22:45:16 10° N
CZ-4C R/B 4.0 22:42:05 10° N 22:45:35 44° WNW 22:46:38 34° WSW
Cosmos 1933 3.8 22:43:29 10° N 22:47:13 44° ENE 22:47:44 41° E
Cosmos 1536 Rocket 3.8 22:48:20 43° SW 22:49:35 64° WNW 22:53:59 10° N
ATLAS 2AS CENTAUR R/B 3.6 22:43:20 10° NW 22:49:49 44° NE 22:56:11 10° ESE
Cosmos 1656 4.0 22:47:10 23° SW 22:50:41 64° WNW 22:56:12 10° NNE
Cosmos 1417 Rocket 4.5 22:45:59 10° NNW 22:52:07 73° W 22:54:39 37° S
RESURS DK-1 3.0 22:48:38 10° NW 22:52:20 38° WSW 22:52:29 37° WSW
S3M 4.0 22:47:27 10° N 22:53:48 82° W 22:56:23 38° S
Cosmos 2263 Rocket 3.3 22:50:44 10° NNW 22:56:00 38° NE 22:59:46 17° ESE
Cosmos 1606 Rocket 3.5 22:53:37 10° NNW 22:57:59 81° W 22:58:50 57° S
Cosmos 2058 3.2 23:01:15 46° WSW 23:01:59 54° WNW 23:05:52 10° N
Cosmos 1400 Rocket 4.1 22:59:23 10° NW 23:02:35 26° W 23:03:02 25° WSW
USA 215 3.2 22:58:07 16° ESE 23:03:31 85° NE 23:10:07 10° NW
Cosmos 1602 3.5 23:07:46 66° NNE 23:07:46 66° NNE 23:10:36 10° N
Cosmos 1782 3.3 23:05:49 10° NNW 23:09:17 41° W 23:09:26 41° W
Cosmos 1655 Rocket 4.0 23:09:38 39° S 23:12:15 79° E 23:18:39 10° N
ISS -1.2 23:10:00 10° W 23:10:32 13° W 23:10:32 13° W
Cosmos 1862 3.1 23:18:17 63° W 23:18:28 65° W 23:22:08 10° N
Cosmos 2297 Rocket 2.8 23:14:32 10° NW 23:19:49 41° WSW 23:21:13 35° SW
Cosmos 2219 4.0 23:15:40 10° NNW 23:21:10 48° NE 23:24:45 21° ESE
Cosmos 1726 Rocket 3.8 23:16:39 10° NNW 23:21:13 64° W 23:22:11 51° SSW
Dummy Sat-02 4.4 23:22:12 84° WSW 23:22:15 85° W 23:25:53 10° N
ALOS 2 3.4 23:22:00 36° WSW 23:22:41 38° W 23:26:49 10° NNW
Cosmos 2058 Rocket 3.2 23:18:35 10° N 23:23:03 70° E 23:23:59 52° SE
PSLV R/B 3.9 23:18:32 10° N 23:23:11 68° WNW 23:24:32 44° SW
Cosmos 1980 Rocket 2.6 23:28:23 40° SSE 23:29:47 49° ESE 23:35:11 10° NE
Lacrosse 5 rocket 1.4 23:26:00 10° NW 23:29:56 68° NE 23:31:06 42° ESE
Orbus 7S? 4.2 23:29:20 44° SSE 23:30:01 47° SE 23:37:51 10° NE
Cosmos 468 4.4 23:28:25 10° NNW 23:33:46 84° WSW 23:35:25 46° SSE
Cosmos 1697 Rocket 2.7 23:32:03 36° SW 23:34:26 77° WNW 23:40:08 10° NNE
Cosmos 1356 Rocket 3.4 23:30:56 10° NNW 23:34:57 63° W 23:35:17 59° SW
CZ-2C R/B 3.4 23:36:52 25° SE 23:39:52 48° ENE 23:45:14 10° N
Cosmos 1892 Rocket 3.8 23:39:40 47° WSW 23:40:31 58° WNW 23:44:47 10° N
PSLV R/B 3.8 23:39:14 10° N 23:43:13 74° WNW 23:43:44 62° SW
Cosmos 1441 Rocket 3.2 23:44:49 56° WNW 23:44:50 56° WNW 23:48:15 10° N
GEOS 3 Rocket 3.9 23:43:30 10° NE 23:48:43 67° NW 23:51:46 26° WSW
Cosmos 1758 Rocket 4.1 23:47:54 40° SE 23:48:48 46° E 23:53:04 10° NNE
Meteor 2-3 Rocket 3.8 23:46:45 39° SSW 23:48:58 73° WNW 23:54:45 10° N
Cosmos 1626 Rocket 3.8 23:49:13 50° SE 23:50:03 60° E 23:54:23 10° NNE
CENTAUR R/B 4.2 23:49:44 12° ESE 23:51:28 14° ESE 23:54:31 10° ENE
Cosmos 2227 Rocket 2.5 23:47:13 10° NW 23:52:41 49° WSW 23:54:07 40° SSW
Cosmos 1125 Rocket 3.5 23:52:54 43° SSW 23:54:39 83° WNW 23:59:56 10° NNE
